Location: Dal�� Lhota
(48.7500°N, 14.0167°E)
Time: 02:09:06
(UTC+00:00)

Lacrosse 5 rocket - Pass Details

Date: 24 September 2020
Orbit: 460 x 636 km, 57.0° (Epoch: 29 October)

Event Time Altitude Azimuth Distance (km) Brightness Sun altitude
Rises 17:33:58 0° 285° (WNW) 2,754 7.2 -6.9°
Reaches altitude 10° 17:36:25 10° 298° (WNW) 1,890 5.4 -7.3°
Maximum altitude 17:40:08 28° 358° (N) 1,141 3.1 -7.9°
Drops below altitude 10° 17:44:02 10° 57° (ENE) 1,975 3.7 -8.6°
Enters shadow 17:45:02 - 63° (ENE) 2,316 4.0 -8.7°
